User: anonymous   Login
Location: Unspecified
(0.0000°N, 0.0000°E)
Time: 01:59:18
(UTC+00:00)
Language:

NEE 01 PEGASUS - Orbit

View from above orbital plane
View from above orbital plane
View from above satellite
View from above satellite

Ground track
Ground track

The orbit data is extracted from the following two-line orbital elements,

1 39151U 13018B   17325.25022500  .00000329  00000-0  50659-4 0  9999
2 39151  97.9818  55.7695 0015794 260.9552  98.9872 14.79811479246764
Epoch (UTC): 21 November 2017 06:00:19
Eccentricity: 0.0015794
inclination: 97.9818°
perigee height: 619 km
apogee height: 641 km
right ascension of ascending node: 55.7695°
argument of perigee: 260.9552°
revolutions per day: 14.79811479
mean anomaly at epoch: 98.9872°
orbit number at epoch: 24676

The dashed part of the orbit path shows where the satellite is in the earth's shadow,  

DLR